TimeEDT,TemperatureF,Dew PointF,Humidity,Sea Level PressureIn,VisibilityMPH,Wind Direction,Wind SpeedMPH,Gust SpeedMPH,PrecipitationIn,Events,Conditions,WindDirDegrees,DateUTC
12:15 AM,55.4,55.4,100,29.87,8.0,NNE,8.1,-,0.00,Rain,Light Rain,30,2013-03-24 04:15:00
12:35 AM,55.4,55.4,100,29.89,7.0,NE,6.9,-,0.01,Rain,Light Rain,40,2013-03-24 04:35:00
12:55 AM,55.4,55.4,100,29.83,4.0,NNE,6.9,16.1,0.06,Rain,Rain,30,2013-03-24 04:55:00
1:15 AM,55.4,55.4,100,29.84,7.0,NE,8.1,-,0.00,Rain,Light Rain,40,2013-03-24 05:15:00
1:35 AM,55.4,55.4,100,29.83,5.0,NE,8.1,-,0.04,Rain,Light Rain,40,2013-03-24 05:35:00
1:55 AM,53.6,53.6,100,29.79,5.0,NE,6.9,17.3,0.04,Rain,Rain,40,2013-03-24 05:55:00
2:15 AM,55.4,55.4,100,29.78,4.0,ENE,6.9,-,0.01,,Light Drizzle,60,2013-03-24 06:15:00
2:35 AM,55.4,55.4,100,29.78,4.0,ENE,8.1,-,0.01,Rain,Light Rain,60,2013-03-24 06:35:00
2:55 AM,55.4,55.4,100,29.77,5.0,NE,10.4,-,0.02,Rain-Thunderstorm,Rain,50,2013-03-24 06:55:00
3:15 AM,55.4,55.4,100,29.79,3.0,NE,6.9,-,0.03,Rain,Light Rain,50,2013-03-24 07:15:00
3:55 AM,55.4,55.4,100,29.75,2.0,ENE,6.9,-,0.16,Rain-Thunderstorm,Heavy Thunderstorms and Rain,60,2013-03-24 07:55:00
4:15 AM,55.4,55.4,100,29.71,3.0,ESE,4.6,-,0.00,Thunderstorm,Overcast,110,2013-03-24 08:15:00
4:35 AM,55.4,55.4,100,29.69,3.0,NE,8.1,-,0.01,Thunderstorm,Overcast,50,2013-03-24 08:35:00
4:55 AM,57.2,57.2,100,29.67,3.0,ENE,8.1,-,0.01,Thunderstorm,Overcast,70,2013-03-24 08:55:00
5:15 AM,57.2,57.2,100,29.67,3.0,Calm,Calm,-,0.00,Thunderstorm,Overcast,0,2013-03-24 09:15:00
5:35 AM,59.0,59.0,100,29.65,2.0,ENE,6.9,-,0.01,,Overcast,70,2013-03-24 09:35:00
5:55 AM,59.0,59.0,100,29.63,1.8,East,5.8,-,0.01,,Overcast,100,2013-03-24 09:55:00
6:15 AM,60.8,60.8,100,29.61,1.5,SE,5.8,-,0.00,,Overcast,130,2013-03-24 10:15:00
6:35 AM,60.8,60.8,100,29.60,4.0,SSE,6.9,-,0.00,,Overcast,160,2013-03-24 10:35:00
6:50 AM,60.8,59.0,94,29.59,5.0,South,9.2,-,N/A,,Overcast,180,2013-03-24 10:50:00
9:20 AM,59.0,59.0,100,29.60,3.0,North,13.8,23.0,N/A,Rain,Rain,360,2013-03-24 13:20:00
9:50 AM,57.2,55.4,94,29.62,3.0,NNE,11.5,18.4,N/A,Rain,Rain,30,2013-03-24 13:50:00
10:50 AM,62.6,62.6,100,29.61,2.0,South,6.9,-,N/A,Rain,Rain,190,2013-03-24 14:50:00
11:45 AM,64.4,62.6,94,29.53,3.0,South,6.9,-,N/A,,Drizzle,180,2013-03-24 15:45:00
12:50 PM,68.0,66.2,94,29.53,7.0,SSW,9.2,-,N/A,,Scattered Clouds,200,2013-03-24 16:50:00
1:50 PM,71.6,55.4,57,29.51,10.0,SW,10.4,26.5,N/A,,Mostly Cloudy,230,2013-03-24 17:50:00
2:50 PM,73.4,64.4,73,29.50,10.0,WSW,11.5,28.8,N/A,,Scattered Clouds,250,2013-03-24 18:50:00
4:59 PM,69.8,59.0,68,29.52,10.0,West,9.2,-,N/A,,Clear,280,2013-03-24 20:59:00
5:58 PM,64.4,57.2,77,29.55,10.0,WNW,12.7,-,N/A,,Clear,300,2013-03-24 21:58:00
6:59 PM,59.0,53.6,82,29.57,10.0,WNW,15.0,-,N/A,,Scattered Clouds,300,2013-03-24 22:59:00
7:50 PM,57.2,53.6,88,29.57,10.0,WNW,6.9,-,N/A,,Partly Cloudy,300,2013-03-24 23:50:00
9:15 PM,55.4,55.4,100,29.61,10.0,NNW,10.4,18.4,0.00,,Overcast,340,2013-03-25 01:15:00
9:55 PM,55.4,55.4,100,29.60,10.0,North,11.5,21.9,0.00,,Overcast,350,2013-03-25 01:55:00
10:15 PM,53.6,53.6,100,29.59,9.0,North,11.5,18.4,0.00,,Overcast,360,2013-03-25 02:15:00
10:35 PM,53.6,53.6,100,29.61,10.0,North,6.9,-,0.00,,Overcast,360,2013-03-25 02:35:00
10:55 PM,53.6,53.6,100,29.61,10.0,North,5.8,-,0.00,,Overcast,360,2013-03-25 02:55:00
11:15 PM,53.6,53.6,100,29.64,10.0,South,4.6,-,0.00,,Overcast,190,2013-03-25 03:15:00
11:35 PM,53.6,53.6,100,29.64,10.0,Calm,Calm,-,0.00,,Overcast,0,2013-03-25 03:35:00
11:55 PM,53.6,53.6,100,29.62,10.0,Calm,Calm,-,0.00,,Overcast,0,2013-03-25 03:55:00